FW8498 Weather Reports


Display with metric or nautical units.
time (UTC)temp
F
wind
direction
speed
MPH
gust
MPH
rain 1hr
in
rain 24hr
in
rain mn
in
humidity
%
barometer
mb
20210410152822 58 122 1.0 4.0 0.00 0.01 0.01 96 999.2
20210410151703 58 125 1.0 3.0 0.00 0.01 0.01 96 999.4
20210410150743 58 109 1.0 3.0 0.00 0.01 0.01 96 999.5
20210410150229 58 110 1.0 3.0 0.00 0.01 0.01 96 999.3
20210410145410 58 99 1.0 3.0 0.00 0.01 0.01 97 999.3
20210410144102 57 100 1.0 3.0 0.00 0.01 0.01 96 999.3
20210410143145 57 115 1.0 3.0 0.00 0.01 0.01 97 999.4
20210410142714 57 110 1.0 3.0 0.00 0.01 0.01 96 999.5
20210410141342 57 103 1.0 2.0 0.00 0.01 0.01 97 999.3
20210410140456 57 94 1.0 3.0 0.00 0.01 0.01 97 999.3
20210410140041 57 94 1.0 2.0 0.00 0.01 0.01 96 999.2
20210410134719 57 100 0.0 2.0 0.00 0.01 0.01 97 999.2
20210410133741 57 101 0.0 2.0 0.00 0.01 0.01 97 998.9
20210410132212 57 97 0.0 2.0 0.01 0.01 0.01 97 998.7
20210410131054 57 105 0.0 2.0 0.01 0.01 0.01 97 999.0
20210410130214 56 105 0.0 1.0 0.01 0.01 0.01 97 999.1
20210410124344 56 100 0.0 1.0 0.01 0.01 0.01 96 999.4
20210410123232 56 89 0.0 1.0 0.00 0.00 0.00 97 999.5
20210410121641 56 87 0.0 1.0 0.00 0.00 0.00 96 999.5
20210410120756 56 111 0.0 1.0 0.00 0.00 0.00 96 999.7
20210410120132 56 99 0.0 1.0 0.00 0.00 0.00 96 999.4
20210410115246 56 104 1.0 2.0 0.00 0.00 0.00 96 999.2
20210410114045 56 110 1.0 2.0 0.00 0.00 0.00 96 999.3
20210410113141 56 98 0.0 2.0 0.00 0.00 0.00 96 999.2
20210410112725 56 119 1.0 3.0 0.00 0.00 0.00 96 999.0
20210410111352 56 108 0.0 3.0 0.00 0.00 0.00 96 998.8
20210410110443 56 106 0.0 2.0 0.00 0.00 0.00 96 998.7
20210410105842 56 98 0.0 2.0 0.00 0.00 0.00 96 998.6
20210410104642 56 103 0.0 1.0 0.00 0.00 0.00 96 998.6
20210410103741 56 104 0.0 1.0 0.00 0.00 0.00 96 998.6
20210410102911 56 88 0.0 2.0 0.00 0.00 0.00 96 998.8
20210410102211 56 99 0.0 2.0 0.00 0.00 0.00 96 998.6
20210410101044 56 110 0.0 2.0 0.00 0.00 0.00 96 998.7
20210410100141 56 92 1.0 2.0 0.00 0.00 0.00 96 998.6
20210410095827 56 99 0.0 2.0 0.00 0.00 0.00 96 998.8
20210410094345 56 97 0.0 1.0 0.00 0.00 0.00 96 998.8
20210410093444 56 89 0.0 2.0 0.00 0.00 0.00 96 998.8
20210410092706 56 47 0.0 1.0 0.00 0.00 0.00 96 998.8
20210410091641 55 115 0.0 1.0 0.00 0.00 0.00 96 998.7
20210410090741 55 0 0.0 0.0 0.00 0.00 0.00 96 998.6
20210410085912 55 0 0.0 0.0 0.00 0.00 0.00 96 998.3
20210410085041 55 0 0.0 0.0 0.00 0.00 0.00 96 998.5
20210410084041 55 0 0.0 0.0 0.00 0.00 0.00 96 998.8
20210410083144 55 0 0.0 0.0 0.00 0.00 0.00 96 998.6
20210410082417 55 207 0.0 1.0 0.00 0.00 0.00 96 998.6
20210410081341 55 0 0.0 0.0 0.00 0.00 0.00 95 998.2
20210410080441 55 0 0.0 0.0 0.00 0.00 0.00 95 998.0
20210410075849 56 0 0.0 0.0 0.00 0.00 0.00 95 997.9
20210410074643 56 0 0.0 0.0 0.00 0.00 0.00 95 998.2
20210410073741 56 0 0.0 0.0 0.00 0.00 0.00 94 998.5
20210410072842 57 0 0.0 0.0 0.00 0.00 0.00 94 998.7
20210410072021 57 0 0.0 0.0 0.00 0.00 0.00 93 999.1
20210410071041 58 0 0.0 0.0 0.00 0.00 0.00 93 999.2
20210410070146 59 0 0.0 0.0 0.00 0.01 0.00 93 999.5
20210410065753 59 0 0.0 0.0 0.00 0.03 0.00 93 999.7
20210410064353 59 0 0.0 0.0 0.00 0.14 0.00 93 1000.0
20210410063556 59 0 0.0 0.0 0.00 0.26 0.00 92 1000.2
20210410063042 60 0 0.0 0.0 0.00 0.38 0.00 92 1000.2
20210410061642 60 0 0.0 0.0 0.00 0.42 0.00 92 1000.3
20210410060742 60 135 0.0 1.0 0.00 0.44 0.00 92 1000.3
20210410060121 60 146 0.0 1.0 0.00 0.45 0.00 92 1000.4
20210410055434 60 0 0.0 0.0 0.00 0.46 0.00 92 1000.5
20210410054045 60 149 0.0 1.0 0.00 0.47 0.00 92 1000.6
20210410053143 60 195 0.0 1.0 0.00 0.47 0.00 92 1000.7
20210410052747 60 137 0.0 2.0 0.00 0.47 0.00 91 1000.6
20210410051342 60 112 0.0 1.0 0.00 0.47 0.00 91 1000.5
20210410050445 60 101 0.0 1.0 0.00 0.47 0.00 91 1000.5
20210410045952 60 101 0.0 1.0 0.00 0.47 0.00 91 1000.3
20210410044641 60 101 0.0 1.0 0.00 0.47 0.00 91 1000.3
20210410043742 60 101 0.0 1.0 0.00 0.47 0.00 90 1000.4
20210410042843 60 101 0.0 1.0 0.00 0.47 0.00 91 1000.5
20210410042126 61 101 0.0 1.0 0.00 0.47 0.00 90 1000.7
20210410041041 61 0 0.0 0.0 0.00 0.47 0.00 90 1000.5
20210410040143 61 101 0.0 1.0 0.00 0.47 0.00 90 1000.5
20210410035758 61 101 0.0 1.0 0.00 0.47 0.47 90 1000.5
20210410034341 61 102 0.0 2.0 0.00 0.47 0.47 90 1000.5
20210410033441 61 98 0.0 1.0 0.00 0.47 0.47 90 1000.3
20210410032923 61 98 0.0 2.0 0.00 0.47 0.47 90 1000.2
20210410031641 61 127 0.0 1.0 0.00 0.47 0.47 90 1000.2
20210410030952 61 104 0.0 2.0 0.00 0.47 0.47 89 1000.2
20210410030139 61 75 0.0 1.0 0.00 0.47 0.47 89 1000.1
20210410025211 61 323 0.0 2.0 0.00 0.47 0.47 89 1000.1
20210410024043 61 77 0.0 2.0 0.00 0.47 0.47 89 1000.3
20210410023145 61 158 0.0 2.0 0.00 0.47 0.47 88 1000.1
20210410022626 61 202 0.0 2.0 0.00 0.47 0.47 88 1000.3
20210410021347 61 113 0.0 3.0 0.00 0.47 0.47 88 1000.5
20210410020442 61 101 1.0 3.0 0.00 0.47 0.47 88 1000.5
20210410015843 61 94 1.0 3.0 0.00 0.47 0.47 88 1000.5
20210410014643 61 101 1.0 4.0 0.00 0.47 0.47 88 1000.5
20210410013745 61 100 2.0 4.0 0.00 0.47 0.47 88 1000.3
20210410012941 61 105 2.0 4.0 0.00 0.47 0.47 88 1000.2
20210410012132 61 93 2.0 4.0 0.00 0.47 0.47 88 1000.1
20210410011111 61 95 1.0 3.0 0.00 0.47 0.47 88 1000.2
20210410010141 61 107 1.0 3.0 0.00 0.47 0.47 88 1000.1
20210410005819 61 95 0.0 2.0 0.00 0.47 0.47 87 999.9
20210410004341 62 104 0.0 2.0 0.00 0.47 0.47 87 1000.0
20210410003442 62 99 1.0 4.0 0.00 0.47 0.47 86 999.9
20210410001644 62 83 0.0 2.0 0.00 0.47 0.47 86 1000.2
20210410000747 62 162 0.0 1.0 0.00 0.47 0.47 85 1000.3
20210409235350 63 97 0.0 2.0 0.00 0.47 0.47 85 1000.1
20210409234045 63 101 0.0 1.0 0.00 0.47 0.47 84 1000.1
20210409233141 63 99 0.0 2.0 0.00 0.47 0.47 84 1000.0
20210409232658 64 100 0.0 2.0 0.00 0.47 0.47 84 1000.0
20210409231346 64 112 0.0 3.0 0.00 0.47 0.47 83 1000.0
20210409230644 64 110 1.0 4.0 0.00 0.47 0.47 83 1000.3
20210409230105 64 93 1.0 2.0 0.00 0.47 0.47 83 1000.2
20210409224642 64 95 1.0 2.0 0.00 0.47 0.47 82 1000.2
20210409223741 64 100 1.0 2.0 0.00 0.47 0.47 82 1000.1
20210409222841 65 92 2.0 6.0 0.00 0.47 0.47 81 1000.1
20210409222036 65 96 2.0 4.0 0.00 0.47 0.47 81 1000.0
20210409221042 65 111 2.0 3.0 0.00 0.47 0.47 80 1000.1
20210409220141 65 89 1.0 4.0 0.00 0.47 0.47 80 1000.0
20210409215711 65 94 2.0 5.0 0.00 0.47 0.47 80 1000.0
20210409214341 65 101 2.0 6.0 0.00 0.47 0.47 79 1000.0
20210409213441 65 96 1.0 3.0 0.00 0.47 0.47 79 1000.0
20210409212835 66 121 1.0 3.0 0.00 0.47 0.47 78 1000.1
20210409211643 65 55 1.0 2.0 0.00 0.47 0.47 79 1000.2
20210409210741 65 91 1.0 3.0 0.00 0.47 0.47 79 1000.2
20210409205924 65 111 2.0 5.0 0.00 0.47 0.47 79 1000.2
20210409205201 65 114 2.0 3.0 0.00 0.47 0.47 79 1000.1
20210409204041 65 109 1.0 3.0 0.00 0.47 0.47 80 1000.2
20210409203141 64 115 1.0 3.0 0.00 0.47 0.47 79 1000.2
20210409202540 64 118 2.0 4.0 0.00 0.47 0.47 80 1000.1
20210409201342 65 106 2.0 5.0 0.00 0.47 0.47 79 1000.2
20210409200442 65 80 1.0 5.0 0.00 0.47 0.47 79 1000.3
20210409195942 65 112 2.0 4.0 0.00 0.47 0.47 79 1000.4
20210409194642 65 126 2.0 4.0 0.00 0.47 0.47 80 1000.4
20210409193742 65 104 2.0 4.0 0.00 0.47 0.47 80 1000.3
20210409192914 65 86 2.0 5.0 0.00 0.47 0.47 82 1000.4
20210409192105 64 88 2.0 4.0 0.00 0.47 0.47 81 1000.5
20210409191043 64 126 1.0 3.0 0.00 0.47 0.47 81 1000.7
20210409190253 63 114 1.0 4.0 0.00 0.47 0.47 83 1001.0
20210409185836 63 119 2.0 6.0 0.00 0.47 0.47 82 1000.9
20210409184346 63 122 2.0 5.0 0.00 0.47 0.47 82 1000.9
20210409183441 63 103 2.0 5.0 0.00 0.47 0.47 83 1001.1
20210409182859 63 97 2.0 5.0 0.00 0.47 0.47 84 1001.1
20210409181655 63 90 1.0 3.0 0.00 0.47 0.47 83 1001.2
20210409180747 62 98 2.0 4.0 0.00 0.47 0.47 85 1001.2
20210409180247 62 83 1.0 4.0 0.00 0.47 0.47 84 1001.3
20210409175300 62 91 2.0 5.0 0.00 0.47 0.47 85 1001.4
20210409174044 61 98 2.0 6.0 0.00 0.47 0.47 86 1001.4
20210409173217 61 88 2.0 6.0 0.00 0.47 0.47 86 1001.6
20210409172653 61 80 2.0 6.0 0.00 0.47 0.47 87 1001.8
20210409171342 60 112 2.0 5.0 0.00 0.47 0.47 87 1001.6
20210409170441 60 110 3.0 5.0 0.00 0.47 0.47 89 1001.6
20210409165927 59 91 2.0 5.0 0.00 0.47 0.47 89 1001.7
20210409164705 59 108 2.0 6.0 0.00 0.47 0.47 90 1001.8
20210409163741 59 108 2.0 5.0 0.00 0.47 0.47 91 1001.8
20210409162844 58 91 2.0 5.0 0.00 0.47 0.47 91 1001.8
20210409162011 58 110 2.0 5.0 0.00 0.47 0.47 91 1002.1
20210409161041 58 109 2.0 5.0 0.00 0.47 0.47 91 1002.0
20210409160352 58 93 2.0 4.0 0.00 0.47 0.47 91 1001.9
20210409155241 58 107 2.0 5.0 0.00 0.47 0.47 91 1002.0